星链-1638 (STARLINK-1638 )

导读 | 豆包AI

STARLINK-1638是美国太空探索技术公司星链星座的一员,由美国于2020年8月18日发射升空,旨在为全球提供低延迟、高速率的宽带互联网服务。它运行在近地轨道,是星链大规模组网建设过程中的重要组成部分,推动了全球卫星互联网基础设施的布局与拓展。

基本信息
目录编号:
46134
目录名称:
STARLINK-1638
国际标识:
2020-057T
轨道中心:
EARTH
卫星名称:
星链-1638
卫星全名:
星链-1638 (STARLINK-1638 )
卫星状态:
已陨落 最后检测时间 2023-11-29
发射日期:
2020-08-18 UTC
国别 :
美国 (US)
星等 :
--
轨道信息
数据来源 国际轨道数据
星历时间: 2023-11-30T07:48:01+0800
轨道信息已过期835天
半长轴: 6563.689km
偏心率: 0.0005581
轨道倾角: 53.026°
近地点辐角 63.355°
升交点赤经 358.794°
平近点角 39.222°
近地点: 181.89km
远地点: 189.218km
周期: 88.203分钟
每日圈数: 16.326037
详细信息
固有亮度:
5
最大亮度:
2.5
卫星平台:
Starlink V1.0
覆盖范围:
全球
运营商:
太空探索技术公司
运营商所在国:
美国
制造商(研发单位):
太空探索技术公司
制造商所在国:
美国
使用方式:
暂无
卫星简介
星链(Starlink)计划是由太空探索技术公司(SpaceX)提出的一个巨型低轨卫星互联网星座项目,计划在2019年至2024年间在太空搭建由约1.2万颗卫星组成的“星链”网络,其中1584颗将部署在地球上空550千米处的近地轨道,并从2020年开始工作。该卫星已陨落。